Home > Weather > Baton Rouge > Past weeks

Flag for U.S.A. Weather for the Past 2 Weeks in Baton Rouge, Louisiana, U.S.A.

Now
51 °F

Overcast.


Feels Like: 50 °F
Forecast: 33 / 60 °F
Wind: 5 mph from Northwest

Location: Baton Rouge Metropolitan - Ryan Field

Current Time: Feb 6, 2016 at 6:28:06 PM

Latest Report: Feb 6, 2016 at 5:53 PM


Visibility: 10 mi

Pressure: 30.27 "Hg

Humidity: 33%

Dew point: 23 °F

Location of Baton RougeLocation

Historic Weather in Baton Rouge — Graph

°F

Baton Rouge Temperature Yesterday

Maximum temperature yesterday: 56 °F (at 2:53 PM)
Minimum temperature yesterday: 30 °F (at 4:53 AM)
Average temperature yesterday: 42 °F

High & Low Weather Summary for the Past Weeks

 TemperatureHumidityPressure
High78 °F (Feb 1, 1:53 PM)100% (Feb 1, 3:53 AM)30.53 "Hg (Feb 1, 3:53 AM)
Low27 °F (Jan 24, 5:53 AM)21% (Feb 5, 1:53 PM)29.70 "Hg (Feb 2, 1:53 PM)
Average53 °F67%30.10 "Hg
* Reported Jan 22 4:00 PM — Feb 6 4:53 PM, Baton Rouge, Weather by CustomWeather, © 2016

Note: Actual official high and low records may vary slightly from our data, if they occured in-between our weather recording intervals... More about our weather records

Advertising

Baton Rouge Weather History for the Previous 24 Hours

 ConditionsComfort  
Time TempWeatherWind HumidityBarometerVisibility
4:53 PM
Sat, Feb 6
56 °FOvercast.No wind21%30.26 "Hg10 mi
3:53 PM58 °FSunny.3 mph21%30.25 "Hg10 mi
2:53 PM57 °FSunny.5 mph24%30.24 "Hg10 mi
1:53 PM56 °FPassing clouds.No wind24%30.26 "Hg10 mi
12:53 PM56 °FScattered clouds.No wind24%30.29 "Hg10 mi
11:53 AM56 °FSunny.5 mph27%30.32 "Hg10 mi
10:53 AM54 °FSunny.3 mph29%30.36 "Hg10 mi
9:53 AM49 °FSunny.6 mph44%30.36 "Hg10 mi
8:53 AM44 °FOvercast.No wind53%30.37 "Hg10 mi
7:53 AM39 °FSunny.No wind67%30.34 "Hg10 mi
6:53 AM36 °FPassing clouds.5 mph75%30.32 "Hg10 mi
5:53 AM34 °FClear.8 mph85%30.32 "Hg10 mi
4:53 AM32 °FClear.3 mph85%30.34 "Hg10 mi
3:53 AM32 °FClear.3 mph85%30.36 "Hg10 mi
2:53 AM32 °FClear.3 mph85%30.37 "Hg10 mi
1:53 AM33 °FClear.No wind85%30.37 "Hg10 mi
12:53 AM33 °FClear.3 mph82%30.38 "Hg10 mi
11:53 PM
Fri, Feb 5
35 °FClear.No wind78%30.38 "Hg10 mi
10:53 PM37 °FClear.No wind73%30.39 "Hg8 mi
9:53 PM38 °FClear.No wind73%30.39 "Hg10 mi
8:53 PM40 °FClear.No wind63%30.39 "Hg10 mi
7:53 PM42 °FClear.No wind60%30.38 "Hg10 mi
6:53 PM45 °FClear.No wind44%30.37 "Hg10 mi
Weather by CustomWeather, © 2016

See weather overviewHow to use our weather pages